Stove Prairie

Current Conditions

Time12/14/2019 12:45 AM MST
Location40.619167,-105.356944
Elevation7,349 FT
Air Temp23°F
Surface Temp25°F
Dew Point Temp9°F
Relative Humidity55%
Visibility6,562 FT
Pressure768 MB
PrecipitationNone

Click a photo to enlarge.

180°1 mph
Wind from @ 1 mph

Past 24 Hours

All Data

Previous 24h observations for Stove Prairie
Time Air Temp
(°F)
Surface
(°F)
Dew Point
(°F)
Relative
Humidity
Precip. Wind Direction Wind Speed (mph) Visibility (ft) Pressure
(mb)
12:45 AM2325955NoneS16,562768
12:30 AM2324956NoneN06,562768
12:15 AM23241056NoneN06,562768
12:00 AM2224957NoneN06,562769
11:45 PM2325954NoneS66,562769
11:30 PM2324956NoneS36,562769
11:15 PM2223957NoneN06,562769
11:00 PM22231058NoneS76,562769
10:45 PM2223956NoneS76,562769
10:30 PM2322955NoneSSW46,562769
10:15 PM2422748NoneS76,562769
10:00 PM2422647NoneS56,562769
09:45 PM2622644NoneSSW26,562769
09:30 PM2522746NoneSSE96,562769
09:15 PM2522644NoneS86,562769
09:00 PM2923637NoneSSW56,562769
08:45 PM2925638NoneWSW46,562769
08:30 PM2824638NoneN26,562769
08:15 PM2722640NoneNW36,562770
08:00 PM2824538NoneN56,562770
07:45 PM2824436NoneNNW76,562770
07:30 PM2824435NoneNW56,562770
07:15 PM2824334NoneNNW46,562771
07:00 PM2825536NoneNNW46,562771
06:45 PM2826537NoneNW96,562771
06:30 PM2827740NoneNNW56,562771
06:15 PM2827740NoneNW66,562771
06:00 PM2827638NoneNW46,562771
05:45 PM2828537NoneNNW36,562771
05:30 PM2828638NoneNW46,562771
05:15 PM2828638NoneNW66,562771
05:00 PM2828637NoneNW66,562771
04:45 PM2829637NoneNW56,562771
04:30 PM2829637NoneNW96,562771
04:15 PM2930536NoneNNW116,562771
04:00 PM2931536NoneNW106,562771
03:45 PM2932536NoneNNW126,562771
03:30 PM2933536NoneNNW76,562771
03:15 PM2933535NoneNNW106,562771
03:00 PM2934435NoneNNW126,562771
02:45 PM2935434NoneNNW116,562771
02:30 PM2937433NoneNNW146,562771
02:15 PM2938433NoneNNW136,562771
02:00 PM3040433NoneNW106,562771
01:45 PM3040535NoneNW96,562771
01:30 PM3041635NoneNW96,562771
01:15 PM3147533NoneNW96,562771
01:00 PM3150736NoneNW86,562771
12:45 PM3149736NoneNNW66,562771
12:30 PM3147735NoneNW96,562771
12:15 PM3248735NoneNNW66,562771
12:00 PM3144635NoneNNW106,562771
11:45 AM3144634NoneNW86,562771
11:30 AM3141634NoneNW116,562771
11:15 AM3138634NoneNW106,562772
11:00 AM3138736NoneNNW116,562771
10:45 AM3137839NoneNNW96,562771
10:30 AM30341042NoneNW86,562772
10:15 AM3033941NoneNW96,562772
10:00 AM3134736NoneNW106,562771
09:45 AM3133635NoneNNW116,562771
09:30 AM3133836NoneNW86,562771
09:15 AM3131837NoneNW76,562771
09:00 AM3231735NoneNW106,562771
08:45 AM3228735NoneNW96,562771
08:30 AM3227836NoneNW106,562771
08:15 AM31261142NoneNW66,562771
08:00 AM31251348NoneNW86,562771
07:45 AM33261039NoneNW136,562771
07:30 AM32261039NoneNW96,562771
07:15 AM32261140NoneNW96,562771
07:00 AM33251241NoneNW66,562771
06:45 AM32241344NoneNW96,562771
06:30 AM32251446NoneNW86,562771
06:15 AM32241549NoneNW66,562771
06:00 AM33241547NoneNW56,562771
05:45 AM33241547NoneNW86,562771
05:30 AM33241546NoneNW96,562770
05:15 AM34251443NoneNW86,562770
05:00 AM34251340NoneNW116,562770
04:45 AM34241342NoneNW96,562770
04:30 AM33241445NoneNNW76,562770
04:15 AM33251651NoneNW76,562770
04:00 AM32251855NoneNW116,562771
03:45 AM33231752NoneNNW66,562771
03:30 AM34241648NoneNW76,562771
03:15 AM35251544NoneNW76,562771
03:00 AM35251543NoneNW76,562770
02:45 AM34251444NoneN66,562770
02:30 AM33241445NoneNW66,562770
02:15 AM33241445NoneNNW66,562771
02:00 AM33241444NoneNNW56,562771
01:45 AM33241445NoneNNW76,562771
01:30 AM33241547NoneNW66,562771
01:15 AM34241546NoneNNW66,562771
01:00 AM34241546NoneNW56,562771

Red Feather Lakes

Current Conditions

Time12/14/2019 12:45 AM MST
Location40.790278,-105.574167
Elevation8,238 FT
Air Temp23°F
Surface Temp23°F
Dew Point Temp12°F
Relative Humidity62%
Visibility6,562 FT
Pressure741 MB
PrecipitationNone

Click a photo to enlarge.

260°4 mph
Wind from @ 4 mph

Past 24 Hours

All Data

Previous 24h observations for Red Feather Lakes
Time Air Temp
(°F)
Surface
(°F)
Dew Point
(°F)
Relative
Humidity
Precip. Wind Direction Wind Speed (mph) Visibility (ft) Pressure
(mb)
12:45 AM23231262NoneW46,562741
12:30 AM23221263NoneW56,562742
12:15 AM23221262NoneW76,562742
12:00 AM24221260NoneW116,562742
11:45 PM24221159NoneW156,562742
11:30 PM24221156NoneW176,562742
11:15 PM25221155NoneW166,562742
11:00 PM25221155NoneW136,562742
10:45 PM25221054NoneW196,562742
10:30 PM25221053NoneW146,562742
10:15 PM25211053NoneW216,562742
10:00 PM25211052NoneW226,562742
09:45 PM2421952NoneW236,562742
09:30 PM2421952NoneW256,562742
09:15 PM2421850NoneW286,562742
09:00 PM2321748NoneW166,562743
08:45 PM2221444NoneNNE66,562743
08:30 PM2220344NoneNNE96,562743
08:15 PM2220343NoneNNE76,562744
08:00 PM2320342NoneNW86,562744
07:45 PM2421239NoneNNW156,562744
07:30 PM2322139NoneNNW156,562744
07:15 PM2322443NoneN56,562744
07:00 PM2322444NoneN136,562744
06:45 PM2323647NoneN86,562745
06:30 PM2324647NoneNW96,562745
06:15 PM2323649NoneNNW46,562745
06:00 PM2324750NoneNNW106,562745
05:45 PM2224650NoneNW126,562745
05:30 PM2224751NoneNW136,562745
05:15 PM2324750NoneNW166,562745
05:00 PM2324649NoneNW146,562745
04:45 PM2324648NoneNW186,562745
04:30 PM2325648NoneNW126,562745
04:15 PM2325545NoneWNW136,562745
04:00 PM2426545NoneWNW176,562745
03:45 PM2426545NoneNW136,562745
03:30 PM2427545NoneNW176,562745
03:15 PM2428646NoneNW176,562745
03:00 PM2428645NoneNW196,562745
02:45 PM2429544NoneNNW166,562745
02:30 PM2429645NoneWNW206,562745
02:15 PM2430746NoneWNW266,562745
02:00 PM2531746NoneWNW276,562745
01:45 PM2531746NoneWNW216,562745
01:30 PM2529645Light SnowNW166,562745
01:15 PM2429644NoneNW266,562745
01:00 PM2429645NoneNW206,562745
12:45 PM2430646NoneWNW266,562745
12:30 PM2530746NoneNW226,562745
12:15 PM2430746NoneNW276,562745
12:00 PM2531746NoneNW206,562745
11:45 AM2532746NoneNW236,562745
11:30 AM2634846Light SnowNW196,562746
11:15 AM2633845NoneNW256,562745
11:00 AM2631745NoneNW246,562745
10:45 AM2628846NoneNW276,562745
10:30 AM2527847NoneNW236,562745
10:15 AM2526847NoneNW276,562745
10:00 AM2626846NoneNW216,562745
09:45 AM2627745NoneNW156,562745
09:30 AM2626845NoneNW256,562745
09:15 AM2624745NoneNW216,562744
09:00 AM2623846NoneNW216,562744
08:45 AM2623846NoneNW256,562744
08:30 AM2623845NoneNW236,562744
08:15 AM2622948NoneWNW166,562744
08:00 AM26211151NoneWNW266,562744
07:45 AM26211151NoneWNW256,562744
07:30 AM27221152NoneWNW246,562744
07:15 AM27231252NoneWNW276,562744
07:00 AM27221252NoneWNW306,562744
06:45 AM28231250NoneWNW366,562744
06:30 AM28221354Light SnowWNW286,562744
06:15 AM28231352NoneWNW296,562744
06:00 AM27231559Light SnowW206,562744
05:45 AM28221558Light SnowWNW226,562744
05:30 AM29221352NoneWNW326,562744
05:15 AM29221352NoneNW216,562744
05:00 AM28221456NoneWNW116,562744
04:45 AM28211455NoneWNW156,562744
04:30 AM28221454NoneWNW196,562744
04:15 AM29221454NoneWNW236,562744
04:00 AM29231556NoneWNW226,562744
03:45 AM27241869Light SnowWNW176,562744
03:30 AM26242075Light SnowWNW156,562745
03:15 AM27241970Light SnowWNW176,562745
03:00 AM29241657Light SnowW236,562745
02:45 AM29221555NoneW266,562744
02:30 AM29221555NoneW236,562744
02:15 AM29221555NoneWNW186,562744
02:00 AM29211555NoneWNW156,562745
01:45 AM29221452NoneW136,562745
01:30 AM29221351NoneNW126,562745
01:15 AM29221453NoneWNW126,562745
01:00 AM29221454NoneWNW176,562745

Pinewood Reservoir

Current Conditions

Time12/14/2019 12:45 AM MST
Location40.3647,-105.2867
Elevation6,580 FT
Air Temp27°F
Surface Temp27°F
Dew Point Temp10°F
Relative Humidity49%
Visibility6,562 FT
Pressure785 MB
PrecipitationNone
Level of Grip82.0
State of Surface4.0

Click a photo to enlarge.

232°5 mph
Wind from @ 5 mph

Past 24 Hours

All Data

Previous 24h observations for Pinewood Reservoir
Time Air Temp
(°F)
Surface
(°F)
Dew Point
(°F)
Relative
Humidity
Precip. Wind Direction Wind Speed (mph) Visibility (ft) Pressure
(mb)
Level of GripState Surface
12:45 AM27271049NoneSW56,562785824
12:30 AM26261050NoneSW86,562785824
12:15 AM26261050NoneWSW96,562785824
12:00 AM27261048NoneS126,562785824
11:45 PM26261049NoneSW66,562785824
11:30 PM26261050NoneSW76,562786824
11:15 PM26261051NoneWSW56,562786824
11:00 PM25261052NoneSSW96,562786824
10:45 PM26261050NoneWSW66,562786824
10:30 PM25261052NoneW56,562786824
10:15 PM25261052NoneSW56,562786824
10:00 PM25271051NoneW66,562786824
09:45 PM2627948NoneW56,562786824
09:30 PM2827944NoneWSW46,562786824
09:15 PM2928841NoneN06,562786824
09:00 PM3028839NoneSSE46,562786824
08:45 PM3028839NoneE46,562786824
08:30 PM3029838NoneE26,562787824
08:15 PM3228937NoneSSW76,562787824
08:00 PM3229836NoneWSW66,562787824
07:45 PM3229835NoneWSW136,562787824
07:30 PM3230835NoneWSW206,562787824
07:15 PM3230734NoneWSW186,562787824
07:00 PM3230632NoneWSW166,562787824
06:45 PM3330429NoneWSW176,562787824
06:30 PM3331429NoneWSW266,562787824
06:15 PM3332429NoneWSW276,562787824
06:00 PM3332530NoneWSW206,562787824
05:45 PM3332531NoneWSW206,562787824
05:30 PM3333632NoneWSW126,562788824
05:15 PM3333633NoneWSW146,562788824
05:00 PM3334733NoneWSW216,562788824
04:45 PM3334733NoneW156,562788824
04:30 PM3335733NoneWSW166,562788824
04:15 PM3336733NoneWSW156,562788824
04:00 PM3337530NoneWSW86,562788824
03:45 PM3338429NoneWNW56,562788824
03:30 PM3439428NoneW116,562788824
03:15 PM3440428NoneW66,562788824
03:00 PM3442428NoneW136,562788824
02:45 PM3443529NoneW96,562788824
02:30 PM3444529NoneWNW76,562788824
02:15 PM3546528NoneW136,562788824
02:00 PM3546427NoneW146,562788824
01:45 PM3546427NoneW166,562787824
01:30 PM3544427NoneW196,562787824
01:15 PM3545426NoneW176,562787824
01:00 PM32323227W230787820
12:45 PM3546427NoneW176,562787824
12:31 PM3547528NoneW236,562787824
12:15 PM3647628NoneW176,562787824
12:00 PM3547629NoneWSW306,562787824
11:45 AM3647730NoneW226,562787824
11:30 AM323232N000820
11:15 AM3646932NoneWSW396,562787824
11:00 AM35451034NoneWSW306,562787824
10:45 AM35431136NoneW296,562788824
10:30 AM34401137NoneWSW216,562788824
10:15 AM35401137NoneWSW166,562788824
10:00 AM35401136NoneW156,562788824
09:45 AM36401135NoneW186,562788824
09:30 AM36381135NoneWSW196,562787824
09:15 AM35371136NoneWSW286,562787824
09:00 AM35351339NoneWSW156,562787824
08:45 AM35331341NoneWSW166,562787824
08:30 AM35321341NoneWSW186,562787824
08:15 AM35311341NoneWSW286,562786824
08:00 AM35311442NoneWSW256,562787824
07:45 AM35291443NoneWSW236,562787824
07:30 AM35291645NoneWSW266,562787824
07:15 AM35291646NoneWSW276,562787824
07:00 AM34281647NoneWSW226,562787824
06:45 AM35291644NoneWSW196,562787824
06:30 AM36291542NoneWSW256,562787824
06:00 AM37291643NoneWSW236,562787824
05:45 AM36281644NoneWSW176,562787824
05:30 AM33261955NoneSW76,562787824
05:15 AM33281956NoneN06,562787824
05:00 AM34281954NoneSW46,562787824
04:45 AM36281849NoneSSW46,562787824
04:30 AM37291847NoneN06,562787824
04:15 AM36301847NoneNW56,562787824
04:00 AM37301745NoneWSW126,562787824
03:45 AM37311744NoneWSW166,562786824
03:30 AM38311641NoneWSW236,562786824
03:15 AM38311640NoneWSW256,562786824
03:00 AM38311639NoneWSW286,562786824
02:45 AM38311641NoneWSW296,562786824
02:30 AM37311641NoneWSW296,562786824
02:15 AM38311539NoneWSW266,562786824
02:00 AM38311538NoneWSW196,562787824
01:45 AM38311538NoneWSW246,562786824
01:30 AM38311539NoneWSW206,562786824
01:15 AM37311540NoneW166,562786824
01:00 AM38311540NoneWSW216,562787824

Masonville

Current Conditions

Time12/14/2019 12:45 AM MST
Location40.4875,-105.2108
Elevation5,387 FT
Air Temp28°F
Surface Temp29°F
Dew Point Temp15°F
Relative Humidity58%
Visibility6,562 FT
Pressure827 MB
PrecipitationNone

Click a photo to enlarge.

0 mph
Wind from @ 0 mph

Past 24 Hours

All Data

Previous 24h observations for Masonville
Time Air Temp
(°F)
Surface
(°F)
Dew Point
(°F)
Relative
Humidity
Precip. Wind Direction Wind Speed (mph) Visibility (ft) Pressure
(mb)
12:45 AM28291558NoneN06,562827
12:30 AM29281658NoneWSW26,562828
12:15 AM27291458NoneNNE26,562828
11:45 PM27281559NoneN06,562828
11:30 PM27281457NoneN06,562828
11:15 PM27281355NoneSW16,562828
10:45 PM28271353NoneWNW46,562829
10:30 PM28281353NoneENE16,562829
10:15 PM28281352NoneNE26,562829
10:00 PM29281351NoneWNW36,562829
09:45 PM28281352NoneN26,562829
09:30 PM30291349NoneENE26,562829
09:15 PM30281349NoneN36,562829
09:00 PM31291348NoneE36,562829
08:45 PM30291348NoneE36,562829
08:30 PM31291347NoneE46,562829
08:15 PM31291345NoneSE26,562829
08:00 PM33301141NoneNW26,562829
07:45 PM33311240NoneNNE26,562829
07:15 PM33311242NoneENE26,562830
06:45 PM36321235NoneSE26,562830
06:15 PM37331134NoneNW96,562830
06:00 PM37331133NoneNW56,562830
05:45 PM37331133NoneNW66,562830
05:15 PM3833930NoneNW66,562830
05:00 PM3934828NoneNW106,562830
04:45 PM3835929NoneNW106,562830
04:15 PM3836929NoneNW66,562831
03:45 PM3837929NoneNW106,562831
03:15 PM3938826NoneNW116,562830
02:45 PM4041826NoneWNW86,562830
02:15 PM4043927NoneNW136,562830
02:00 PM4043826NoneNW226,562830
01:45 PM4145825NoneWNW226,562830
01:30 PM4146825NoneWNW246,562830
01:15 PM4148825NoneWNW196,562830
01:00 PM4148724NoneNW186,562829
12:45 PM4148926NoneWNW176,562830
12:15 PM4151926NoneNW176,562830
12:00 PM41521028NoneWNW226,562830
11:45 AM41521130NoneWNW156,562830
11:30 AM41511332NoneW116,562830
11:15 AM40491535NoneW196,562830
11:00 AM39481639NoneW186,562830
10:45 AM39451742NoneW146,562831
10:30 AM39441638NoneW136,562831
10:15 AM40461536NoneW176,562831
10:00 AM41461535NoneWNW176,562830
09:45 AM41431433NoneWNW216,562830
09:30 AM41411535NoneW176,562830
09:15 AM41391331NoneWNW266,562830
09:00 AM41371433NoneW176,562830
08:45 AM41351534NoneWNW206,562829
08:15 AM40312046NoneWNW76,562830
08:00 AM38302251NoneNW96,562830
07:45 AM40302045NoneWNW136,562830
07:30 AM39302046NoneNW136,562830
07:15 AM37291949NoneNW76,562829
07:00 AM35282052NoneN26,562830
06:45 AM37291847NoneN36,562829
06:30 AM34261850NoneWNW26,562829
06:15 AM37261846NoneNW66,562829
06:00 AM36291847NoneNNW56,562829
05:45 AM35281748NoneNNW36,562829
05:30 AM36291747NoneN06,562829
05:15 AM35291849NoneE46,562829
05:00 AM35261748NoneS26,562828
04:45 AM38261844NoneWSW36,562828
04:15 AM41292042NoneN46,562829
03:45 AM39281741NoneS16,562829
03:15 AM40311739NoneNNE56,562828
03:00 AM41301738NoneNE46,562828
02:45 AM40301839NoneE36,562828
02:30 AM40281739NoneSSE56,562828
02:15 AM42311736NoneWNW26,562829
01:45 AM43311836NoneWNW116,562829
01:15 AM43301938NoneNW96,562829
01:00 AM43311837NoneNW96,562829

Time to refresh Minute(s) Second(s)